Search for airport 
image banner adimage banner adimage banner ad
image banner ad

0PS4 - Old Orchard

Located in Curwensville, United States

ICAO - 0PS4, IATA -

Data provided by Airmate  

General information

Coordinates: N41°0'30" W78°33'39"
Elevation is 1980 feet MSL.
Magnetic variation is -09° East
View others Airports in Pennsylvania

Operational data

Special qualification required
Current time UTC:
Current local time:
Weather at : KFIG - Clearfield-Lawrence ( 13 km )
METAR: KFIG 292154Z AUTO 26008KT 8SM -RA FEW027 BKN035 OVC060 23/21 A2984 RMK AO2 RAB37 SLP096 P0001 T02280211
View NOTAMs / SUP AIP / TFR affecting this airport [VIEW]
Communications frequencies: [VIEW]

Runways:

RWY identifierQFULength (ft)Width (ft)SurfaceLDA (ft)
062400100GRASS
242400100GRASS

Airport contact information

Address: Curwensville United States

Satellite view of 0PS4